QPF
0.00 0.00 0.00 0.00 0.00 0.00 0.00 0.00 0.00 0.00 0.00 0.00 0.00 0.00 0.00 0.00 0.00 0.00 0.00 0.00 0.00 0.00 0.00 0.00 0.00 0.00 0.00 0.00 0.00 0.01 0.02 0.03 0.03 0.03 0.03 0.03 0.02 0.02
0.00 0.00 0.00 0.00 0.00 0.00 0.00 0.00 0.00 0.00 0.00 0.00 0.00 0.00 0.00 0.00 0.00 0.00 0.00 0.00 0.00 0.00 0.00 0.00 0.00 0.00 0.01 0.01 0.02 0.02 0.02 0.02 0.03 0.03 0.03 0.02 0.02 0.02
0.00 0.00 0.00 0.00 0.00 0.00 0.00 0.00 0.00 0.00 0.00 0.00 0.00 0.00 0.00 0.00 0.00 0.00 0.00 0.00 0.00 0.00 0.00 0.00 0.00 0.00 0.00 0.00 0.00 0.00 0.00 0.01 0.01 0.01 0.02 0.02 0.03 0.04
0.00 0.00 0.00 0.00 0.00 0.00 0.00 0.00 0.00 0.00 0.00 0.00 0.00 0.00 0.00 0.00 0.00 0.00 0.00 0.00 0.00 0.00 0.00 0.00 0.00 0.00 0.00 0.00 0.00 0.00 0.00 0.00 0.00 0.00 0.01 0.01 0.02 0.02
0.00 0.00 0.00 0.00 0.00 0.00 0.00 0.00 0.00 0.00 0.00 0.00 0.00 0.00 0.00 0.00 0.00 0.00 0.00 0.00 0.00 0.00 0.00 0.00 0.00 0.00 0.00 0.00 0.00 0.01 0.03 0.03 0.03 0.03 0.03 0.02 0.02 0.03
0.00 0.00 0.00 0.00 0.00 0.00 0.00 0.00 0.00 0.00 0.00 0.00 0.01 0.00 0.01 0.01 0.01 0.00 0.00 0.00 0.00 0.00 0.00 0.00 0.00 0.00 0.00 0.00 0.00 0.00 0.00 0.01 0.01 0.01 0.01 0.01 0.01 0.01
0.00 0.00 0.00 0.00 0.00 0.00 0.00 0.00 0.00 0.00 0.01 0.02 0.04 0.05 0.02 0.00 0.00 0.00 0.00 0.00 0.00 0.00 0.00 0.00 0.00 0.00 0.00 0.00 0.00 0.00 0.00 0.00 0.00 0.00 0.00 0.01 0.01 0.02
0.00 0.00 0.00 0.00 0.00 0.00 0.00 0.00 0.00 0.01 0.06 0.09 0.05 0.01 0.00 0.00 0.00 0.01 0.02 0.02 0.01 0.00 0.00 0.00 0.00 0.00 0.00 0.00 0.00 0.00 0.00 0.00 0.00 0.01 0.02 0.03 0.03 0.03
0.00 0.00 0.00 0.00 0.00 0.00 0.00 0.00 0.02 0.05 0.03 0.00 0.00 0.00 0.00 0.01 0.05 0.04 0.01 0.01 0.01 0.00 0.00 0.01 0.00 0.00 0.00 0.00 0.00 0.00 0.00 0.00 0.00 0.01 0.02 0.02 0.02 0.02
0.00 0.00 0.00 0.00 0.00 0.00 0.02 0.06 0.03 0.00 0.00 0.00 0.00 0.00 0.02 0.02 0.00 0.02 0.03 0.02 0.00 0.00 0.00 0.02 0.00 0.00 0.00 0.00 0.00 0.00 0.00 0.00 0.01 0.01 0.02 0.02 0.02 0.02
0.00 0.00 0.00 0.00 0.00 0.01 0.03 0.01 0.00 0.00 0.00 0.00 0.01 0.00 0.00 0.00 0.00 0.06 0.04 0.02 0.01 0.00 0.00 0.01 0.00 0.00 0.00 0.00 0.00 0.00 0.00 0.00 0.01 0.01 0.01 0.02 0.03 0.04
0.00 0.00 0.00 0.00 0.01 0.02 0.00 0.00 0.00 0.00 0.04 0.01 0.00 0.00 0.00 0.00 0.00 0.01 0.05 0.06 0.02 0.02 0.00 0.04 0.02 0.01 0.05 0.00 0.00 0.00 0.00 0.00 0.00 0.00 0.00 0.01 0.01 0.02
0.00 0.00 0.00 0.01 0.01 0.00 0.00 0.00 0.00 0.01 0.01 0.00 0.00 0.00 0.00 0.00 0.00 0.00 0.02 0.08 0.10 0.06 0.00 0.08 0.07 0.01 0.04 0.01 0.00 0.00 0.00 0.00 0.00 0.00 0.00 0.01 0.01 0.01
0.00 0.00 0.00 0.01 0.00 0.00 0.00 0.00 0.01 0.00 0.00 0.00 0.00 0.00 0.00 0.00 0.00 0.00 0.00 0.01 0.04 0.10 0.05 0.05 0.09 0.05 0.07 0.02 0.00 0.00 0.00 0.01 0.06 0.03 0.02 0.02 0.02 0.01
0.00 0.00 0.00 0.00 0.00 0.00 0.00 0.00 0.00 0.00 0.00 0.01 0.00 0.00 0.00 0.00 0.00 0.00 0.00 0.00 0.00 0.01 0.02 0.01 0.05 0.05 0.06 0.05 0.02 0.00 0.05 0.02 0.04 0.10 0.07 0.05 0.03 0.02
0.00 0.00 0.00 0.00 0.00 0.00 0.00 0.00 0.00 0.00 0.00 0.01 0.01 0.00 0.00 0.00 0.00 0.00 0.00 0.00 0.00 0.00 0.00 0.00 0.02 0.04 0.04 0.03 0.09 0.04 0.03 0.12 0.06 0.11 0.14 0.07 0.03 0.01
0.00 0.00 0.00 0.00 0.00 0.00 0.00 0.00 0.00 0.00 0.00 0.00 0.00 0.00 0.00 0.00 0.00 0.00 0.00 0.00 0.01 0.00 0.00 0.00 0.00 0.00 0.01 0.04 0.05 0.05 0.09 0.06 0.10 0.19 0.16 0.03 0.01 0.00
0.00 0.00 0.00 0.00 0.00 0.00 0.00 0.00 0.00 0.00 0.00 0.00 0.00 0.00 0.01 0.01 0.01 0.00 0.00 0.00 0.01 0.00 0.01 0.01 0.00 0.00 0.00 0.00 0.06 0.10 0.08 0.09 0.15 0.20 0.14 0.02 0.02 0.01
0.00 0.00 0.00 0.00 0.00 0.00 0.00 0.00 0.00 0.00 0.00 0.00 0.00 0.01 0.02 0.01 0.00 0.00 0.00 0.00 0.00 0.00 0.00 0.01 0.01 0.01 0.01 0.00 0.00 0.05 0.16 0.13 0.10 0.11 0.10 0.06 0.07 0.05
0.00 0.00 0.00 0.00 0.00 0.00 0.01 0.01 0.01 0.00 0.00 0.00 0.01 0.01 0.01 0.02 0.01 0.01 0.00 0.01 0.02 0.01 0.00 0.00 0.00 0.02 0.05 0.06 0.06 0.06 0.11 0.15 0.07 0.04 0.08 0.05 0.06 0.04
0.00 0.00 0.00 0.00 0.00 0.01 0.00 0.00 0.00 0.01 0.02 0.02 0.01 0.01 0.01 0.02 0.01 0.00 0.00 0.00 0.01 0.01 0.00 0.00 0.02 0.05 0.04 0.01 0.02 0.05 0.09 0.17 0.15 0.13 0.07 0.06 0.08 0.02
0.00 0.00 0.00 0.00 0.00 0.00 0.01 0.00 0.01 0.01 0.01 0.01 0.01 0.01 0.01 0.01 0.02 0.02 0.01 0.02 0.01 0.01 0.00 0.00 0.01 0.01 0.00 0.01 0.04 0.07 0.08 0.08 0.10 0.12 0.14 0.06 0.06 0.10
0.00 0.00 0.00 0.00 0.00 0.00 0.00 0.00 0.01 0.02 0.02 0.02 0.02 0.02 0.02 0.02 0.01 0.01 0.02 0.02 0.01 0.01 0.00 0.00 0.01 0.01 0.01 0.01 0.02 0.04 0.03 0.04 0.02 0.06 0.19 0.15 0.09 0.08
MSLP
1018.33 1018.27 1018.24 1017.93 1017.74 1017.52 1017.27 1016.95 1016.41 1014.10 1012.15 1011.66 1011.55 1011.24 1010.69 1010.15 1009.57 1008.79 1008.21 1007.58 1006.77 1005.94 1005.10 1004.38 1003.74 1003.17 1002.63 1001.97 1001.42 1000.89 1000.37 999.85 999.39 998.94 998.61 998.48 998.45 998.31
1017.96 1017.87 1017.69 1017.45 1017.24 1016.92 1016.61 1016.29 1016.01 1015.35 1013.24 1011.88 1010.71 1010.34 1009.96 1009.32 1008.74 1008.03 1007.27 1006.54 1005.87 1005.13 1004.46 1003.70 1002.97 1002.20 1001.49 1000.82 1000.20 999.67 999.28 998.74 998.33 998.08 997.71 997.35 997.24 997.07
1017.69 1017.45 1017.21 1016.90 1016.66 1016.26 1015.93 1015.59 1015.11 1014.59 1013.39 1011.00 1010.34 1009.47 1008.68 1008.17 1007.54 1007.03 1006.40 1005.78 1004.96 1004.21 1003.55 1002.67 1001.88 1001.21 1000.41 999.61 999.01 998.39 997.88 997.65 997.21 996.65 996.53 996.22 996.00 995.92
1017.35 1017.08 1016.74 1016.25 1016.07 1015.70 1015.30 1014.78 1014.13 1013.43 1012.69 1011.16 1009.77 1008.70 1008.08 1007.25 1006.46 1005.95 1005.54 1005.07 1004.68 1003.31 1002.28 1001.56 1000.67 999.83 999.05 998.38 997.96 997.62 996.95 996.25 995.75 995.46 995.14 994.94 994.76 994.58
1016.99 1016.67 1016.25 1015.92 1015.54 1015.04 1014.53 1013.86 1013.14 1012.36 1011.75 1010.75 1009.03 1008.36 1007.18 1006.68 1005.59 1005.34 1004.76 1003.79 1003.16 1002.07 1001.30 1000.57 999.67 998.90 998.03 997.29 996.64 996.17 995.80 995.18 994.71 994.32 994.03 993.84 993.62 993.43
1016.59 1016.24 1015.83 1015.43 1014.98 1014.41 1013.58 1012.82 1012.22 1011.46 1010.65 1009.71 1008.55 1007.43 1006.71 1006.18 1005.48 1004.30 1003.26 1002.77 1001.66 1001.05 1000.40 999.44 998.85 997.99 997.07 996.24 995.50 994.83 994.30 993.86 993.40 993.01 992.71 992.50 992.40 992.35
1016.20 1015.74 1015.28 1014.84 1014.26 1013.59 1012.71 1012.06 1011.46 1010.67 1009.81 1008.71 1007.65 1007.09 1006.32 1005.45 1004.79 1003.78 1002.69 1001.40 1000.42 1000.26 999.26 998.09 997.80 997.00 996.07 995.44 994.64 993.82 993.33 992.77 992.14 991.67 991.35 991.12 991.01 990.94
1015.79 1015.23 1014.80 1014.27 1013.68 1012.98 1012.43 1011.50 1010.57 1009.50 1008.94 1008.41 1007.66 1006.74 1005.88 1005.22 1004.01 1003.08 1002.03 1001.10 998.85 999.17 998.16 997.08 996.89 995.54 994.87 994.23 993.41 992.62 991.72 990.97 990.35 990.03 989.81 989.46 989.28 989.26
1015.38 1014.82 1014.28 1013.74 1013.17 1012.52 1011.54 1010.41 1009.78 1009.43 1008.88 1008.17 1007.30 1006.51 1005.34 1004.42 1003.47 1002.34 1001.48 1000.65 999.30 998.00 997.69 995.79 995.63 994.23 993.67 992.72 991.81 990.98 990.15 989.41 988.74 988.30 988.07 987.87 987.72 987.63
1014.84 1014.42 1013.95 1013.16 1012.60 1011.41 1010.43 1009.63 1009.10 1008.58 1008.15 1007.43 1006.57 1005.50 1004.72 1003.71 1002.93 1002.06 1000.91 999.75 998.55 997.53 997.08 995.22 994.41 993.07 992.28 991.34 990.28 989.30 988.43 987.66 987.13 986.67 986.23 985.90 985.90 985.98
1014.18 1013.78 1013.28 1012.42 1011.69 1010.54 1009.84 1009.17 1008.44 1007.88 1007.22 1006.44 1005.68 1004.86 1004.04 1003.19 1002.35 1001.34 1000.34 999.47 997.71 996.53 995.77 994.94 993.43 992.31 991.19 989.56 988.56 987.74 986.94 986.12 985.50 985.06 984.58 984.21 984.08 984.12
1013.57 1013.03 1012.54 1011.84 1010.65 1010.03 1009.21 1008.73 1008.14 1007.25 1006.40 1005.59 1005.01 1004.29 1003.55 1002.60 1001.68 1001.15 1000.21 999.19 997.97 995.92 994.51 994.36 992.88 991.98 989.50 988.17 987.25 986.54 985.79 984.91 984.36 983.71 983.17 982.72 982.49 982.59
1012.86 1012.39 1011.98 1011.21 1010.12 1009.47 1008.93 1008.68 1007.83 1006.47 1005.90 1005.62 1004.75 1003.81 1002.84 1001.94 1001.13 1000.49 999.88 999.06 997.56 996.13 994.35 993.78 992.19 991.42 990.75 987.94 986.04 985.40 984.73 983.62 983.02 982.33 981.77 981.37 981.10 981.16
1012.67 1012.17 1011.51 1010.58 1009.94 1009.31 1008.82 1008.19 1007.12 1006.42 1006.16 1005.35 1004.53 1003.45 1002.57 1001.56 1000.56 999.87 998.92 998.03 997.11 995.83 994.03 993.23 991.86 990.82 989.37 987.65 986.02 984.10 983.35 982.42 981.67 980.79 980.39 980.03 979.84 979.76
1012.60 1011.77 1011.08 1010.58 1009.92 1009.40 1008.78 1007.92 1007.24 1006.82 1006.06 1005.22 1004.35 1003.41 1002.56 1001.45 1000.24 999.21 998.01 996.98 995.77 994.37 993.21 992.15 991.13 989.78 988.84 987.43 985.90 984.16 982.69 980.93 980.25 979.30 978.67 978.39 978.38 978.65
1012.13 1011.58 1011.17 1010.69 1010.04 1009.33 1008.64 1007.92 1007.32 1006.66 1005.83 1005.08 1004.29 1003.29 1002.25 1001.12 999.95 998.87 997.66 996.28 995.01 993.02 992.04 991.11 990.17 989.32 988.02 986.65 985.62 984.01 982.39 981.12 978.90 977.73 976.67 976.38 977.06 977.68
1011.70 1011.60 1011.14 1010.59 1009.88 1009.16 1008.39 1007.73 1007.00 1006.29 1005.55 1004.90 1004.06 1003.03 1001.89 1000.88 999.61 998.49 997.43 996.27 995.24 993.49 991.58 990.10 989.30 988.62 987.40 986.22 985.12 983.63 981.78 980.10 978.67 977.34 976.19 976.03 976.57 976.97
1012.01 1011.79 1011.20 1010.72 1010.03 1009.23 1008.41 1007.47 1006.70 1006.00 1005.30 1004.57 1003.69 1002.78 1001.75 1000.59 999.50 998.07 997.29 996.29 994.98 993.48 992.06 990.67 989.47 988.18 986.56 985.46 984.86 983.54 981.91 980.50 979.11 977.93 977.05 976.39 976.31 976.56
1012.47 1011.88 1011.35 1010.72 1009.97 1009.20 1008.37 1007.52 1006.55 1005.71 1005.04 1004.25 1003.39 1002.31 1001.28 1000.34 999.33 998.10 997.04 996.00 994.67 993.44 992.27 991.14 990.07 989.18 987.78 986.63 984.94 983.71 982.96 981.35 980.03 978.83 977.98 977.33 976.69 975.96
1012.49 1011.95 1011.28 1010.56 1009.81 1009.03 1008.14 1007.26 1006.27 1005.35 1004.58 1003.75 1002.70 1001.85 1000.95 1000.11 999.07 997.98 996.91 995.90 994.55 993.37 992.38 991.30 990.41 989.53 988.59 987.72 986.68 984.98 983.63 982.46 981.11 980.05 979.12 978.49 977.77 976.47
1012.33 1011.78 1011.13 1010.38 1009.59 1008.76 1007.88 1007.01 1006.14 1005.13 1004.15 1003.28 1002.33 1001.43 1000.49 999.78 998.68 997.67 996.65 995.54 994.52 993.71 992.79 991.81 990.89 989.80 988.92 987.69 986.93 985.76 984.55 983.52 982.49 981.36 980.32 979.43 978.84 978.10
1012.27 1011.61 1010.81 1010.06 1009.28 1008.47 1007.54 1006.62 1005.57 1004.58 1003.68 1002.81 1001.89 1000.99 1000.09 999.34 998.32 997.27 996.28 995.43 994.47 993.83 993.20 992.26 991.13 990.24 989.46 988.86 988.11 987.12 985.97 984.94 983.93 983.04 982.12 981.28 980.92 980.88
1012.10 1011.35 1010.47 1009.68 1008.83 1007.98 1007.14 1006.20 1005.27 1004.23 1003.29 1002.39 1001.41 1000.43 999.62 998.67 997.69 996.76 995.88 994.99 994.49 993.83 993.35 992.57 991.68 990.89 990.37 989.77 989.04 988.33 987.36 986.50 985.67 984.89 984.11 983.59 983.14 982.83
Thickness
5476 5468 5460 5454 5446 5436 5427 5416 5406 5419 5439 5437 5410 5398 5380 5368 5357 5345 5338 5333 5330 5330 5332 5332 5334 5333 5336 5339 5342 5346 5350 5354 5360 5364 5371 5377 5383 5389
5464 5457 5449 5442 5433 5424 5413 5401 5387 5373 5382 5400 5395 5370 5349 5331 5318 5310 5305 5305 5305 5302 5300 5301 5302 5307 5311 5316 5321 5324 5327 5331 5335 5339 5345 5352 5356 5363
5451 5445 5437 5429 5420 5410 5397 5384 5371 5351 5336 5364 5351 5341 5326 5308 5296 5285 5282 5280 5283 5290 5286 5284 5284 5285 5287 5293 5300 5307 5311 5312 5315 5321 5323 5330 5336 5339
5440 5432 5424 5416 5403 5390 5377 5365 5350 5333 5309 5301 5316 5312 5300 5291 5287 5274 5264 5261 5260 5270 5270 5270 5272 5273 5278 5282 5283 5285 5291 5298 5303 5305 5309 5314 5317 5322
5426 5417 5408 5396 5384 5371 5356 5340 5326 5313 5294 5280 5285 5281 5280 5265 5266 5259 5256 5258 5257 5261 5262 5261 5263 5267 5271 5275 5277 5279 5281 5287 5293 5296 5298 5300 5301 5305
5411 5400 5389 5375 5360 5346 5334 5318 5302 5290 5280 5271 5269 5267 5262 5257 5253 5256 5260 5256 5260 5257 5256 5261 5261 5264 5267 5270 5273 5276 5279 5282 5287 5290 5292 5292 5292 5292
5396 5384 5371 5356 5341 5323 5307 5295 5281 5272 5264 5263 5263 5257 5253 5252 5249 5253 5254 5260 5261 5252 5256 5265 5259 5261 5261 5261 5265 5269 5272 5275 5279 5282 5285 5287 5287 5287
5380 5369 5352 5336 5320 5305 5288 5278 5268 5257 5253 5249 5248 5248 5249 5245 5249 5249 5251 5253 5268 5252 5261 5265 5256 5264 5262 5262 5264 5268 5273 5276 5278 5280 5281 5285 5287 5286
5359 5346 5332 5315 5298 5285 5278 5272 5262 5250 5242 5242 5243 5242 5245 5245 5247 5251 5251 5250 5253 5258 5259 5267 5257 5264 5261 5264 5264 5269 5274 5278 5281 5281 5282 5283 5285 5286
5341 5324 5308 5296 5281 5275 5271 5265 5255 5248 5244 5242 5243 5247 5246 5248 5247 5248 5253 5258 5259 5256 5254 5263 5261 5266 5264 5262 5266 5272 5277 5281 5283 5284 5285 5286 5285 5285
5327 5308 5290 5282 5273 5269 5262 5258 5255 5250 5248 5247 5245 5246 5247 5248 5248 5252 5254 5254 5263 5262 5260 5259 5263 5265 5265 5271 5273 5275 5278 5282 5284 5284 5283 5283 5283 5283
5313 5293 5280 5270 5267 5262 5259 5254 5250 5252 5252 5252 5249 5248 5248 5249 5251 5247 5249 5252 5257 5268 5268 5261 5263 5262 5278 5277 5278 5277 5279 5282 5283 5283 5282 5282 5281 5278
5296 5284 5271 5264 5262 5259 5255 5249 5249 5255 5253 5248 5250 5251 5252 5253 5253 5251 5249 5250 5259 5262 5264 5260 5266 5264 5260 5276 5286 5285 5285 5288 5286 5285 5283 5281 5278 5274
5279 5269 5262 5259 5256 5254 5251 5249 5251 5251 5246 5247 5248 5251 5252 5253 5255 5254 5256 5256 5255 5259 5266 5265 5269 5270 5275 5281 5287 5295 5294 5294 5290 5289 5283 5279 5275 5273
5264 5259 5255 5249 5248 5247 5245 5246 5246 5244 5243 5243 5245 5245 5246 5250 5255 5257 5259 5261 5263 5270 5272 5275 5276 5281 5282 5286 5289 5294 5299 5306 5302 5298 5293 5287 5279 5271
5258 5251 5246 5242 5241 5241 5241 5241 5240 5240 5241 5241 5240 5242 5244 5247 5252 5256 5260 5266 5270 5280 5282 5285 5286 5287 5291 5293 5293 5297 5302 5303 5314 5314 5315 5309 5291 5279
5253 5244 5241 5239 5238 5238 5237 5237 5237 5236 5236 5235 5236 5239 5243 5245 5250 5254 5257 5261 5265 5276 5286 5294 5295 5296 5300 5302 5304 5308 5316 5320 5323 5327 5330 5326 5313 5306
5243 5237 5236 5234 5234 5235 5235 5235 5234 5234 5233 5234 5236 5238 5241 5245 5248 5254 5254 5258 5264 5272 5281 5290 5295 5301 5312 5313 5313 5317 5323 5328 5333 5337 5343 5349 5344 5338
5234 5232 5231 5231 5230 5230 5231 5230 5231 5232 5233 5234 5236 5239 5242 5242 5246 5249 5252 5257 5263 5271 5280 5285 5290 5294 5306 5310 5318 5323 5321 5329 5338 5347 5352 5357 5364 5370
5230 5229 5229 5229 5229 5228 5229 5229 5231 5233 5234 5235 5239 5240 5241 5243 5246 5248 5251 5254 5263 5271 5276 5284 5288 5293 5301 5305 5309 5318 5325 5329 5339 5348 5357 5361 5367 5381
5230 5229 5229 5229 5229 5229 5229 5229 5230 5232 5235 5236 5238 5240 5243 5244 5247 5250 5252 5259 5264 5264 5271 5278 5284 5292 5299 5309 5315 5323 5328 5332 5338 5348 5356 5366 5373 5382
5229 5229 5230 5230 5230 5229 5229 5229 5230 5231 5232 5234 5237 5240 5243 5245 5248 5252 5256 5257 5262 5263 5265 5272 5282 5289 5295 5302 5307 5315 5323 5329 5335 5341 5350 5359 5366 5369
5230 5232 5233 5233 5233 5232 5231 5229 5228 5229 5230 5233 5237 5241 5244 5247 5251 5254 5257 5261 5261 5264 5255 5267 5277 5284 5291 5295 5303 5309 5316 5323 5328 5334 5342 5346 5353 5360